Kaktovik, AK

3:56 PM AKDT on September 28, 2016 (GMT -0800)
Barter Island LRRS

Weather History for PABA - November, 2012

Change the Weather History Date:

Thursday, November 29, 2012

  Actual Average Record
Temperature  
Mean Temperature 4 °F -  
Max Temperature 6 °F 6 °F 35 °F (2004)
Min Temperature 3 °F -2 °F -26 °F (2011)
Degree Days  
Heating Degree Days 60    
Moisture  
Dew Point 3 °F    
Average Humidity 88    
Maximum Humidity 92    
Minimum Humidity 85    
Precipitation  
Precipitation 0.00 in - - ()
Sea Level Pressure  
Sea Level Pressure 30.39 in    
Wind  
Wind Speed 23 mph (West)    
Max Wind Speed 33 mph    
Max Gust Speed 39 mph    
Visibility 7 miles    
Events Snow    
Averages and records for this station are not official NWS values.
T = Trace of Precipitation, MM = Missing Value Source: NWS Daily Summary

Daily Weather History Graph

Daily Weather History Graph

Search for Another Location

Airport or City:

Trip Planner

Search our weather history database for the weather conditions in past years. The results will help you decide how hot, cold, wet, or windy it might be!

Date:

Astronomy

Nov. 29, 2012 Rise Set
Actual Time 11:50 AM AKST 12:55 PM AKST
Civil Twilight 9:43 AM AKST 3:02 PM AKST
Nautical Twilight 8:06 AM AKST 4:38 PM AKST
Astronomical Twilight 6:50 AM AKST 5:54 PM AKST
Moon No Moon Rise No Moon Set
Length of Visible Light 5h 18m
Length of Day
1h 04m
Full, 99% of the Moon is Illuminated
Nov 29
Full
Dec 6
Last Quarter
Dec 12
New
Dec 19
First Quarter
Dec 28
Full

Hourly Weather History & Observations

Time (AKST) Temp. Windchill Dew Point Humidity Pressure Visibility Wind Dir Wind Speed Gust Speed Precip Events Conditions
1:57 AM 3.2 °F -22.5 °F 1.4 °F 92% 30.38 in 2.5 mi WNW 33.4 mph 39.1 mph N/A Snow Light Snow
2:52 AM 5.0 °F -20.1 °F 1.4 °F 85% 30.38 in 2.5 mi WNW 33.4 mph - N/A Snow Light Snow
3:55 AM 6.8 °F -13.4 °F 3.2 °F 85% - 3.0 mi West 20.7 mph - N/A Snow Light Snow
4:54 AM 5.0 °F -17.1 °F 3.2 °F 92% 30.39 in 1.5 mi West 24.2 mph - N/A Snow Light Snow
7:12 AM 5.0 °F -16.7 °F 1.4 °F 85% 30.41 in 5.0 mi West 23.0 mph - N/A Snow Light Snow
7:53 AM 5.0 °F -17.5 °F 3.2 °F 92% 30.41 in 7.0 mi West 25.3 mph - N/A Snow Light Snow
10:01 AM 5.0 °F -15.2 °F 3.0 °F 92% 30.41 in 5.0 mi West 19.6 mph - N/A Snow Light Snow
11:01 AM 5.0 °F -15.2 °F 3.0 °F 92% 30.42 in 7.0 mi West 19.6 mph - 0.00 in Snow Light Snow
12:01 PM 6.1 °F -13.3 °F 3.0 °F 87% 30.42 in 7.0 mi West 18.4 mph - 0.00 in Snow Light Snow
1:01 PM 6.1 °F -12.8 °F 3.9 °F 91% 30.42 in 6.0 mi West 17.3 mph - 0.00 in Snow Light Snow
2:01 PM 6.1 °F -12.8 °F 3.0 °F 87% 30.41 in 7.0 mi West 17.3 mph - 0.00 in Snow Light Snow
3:01 PM 6.1 °F -13.3 °F 3.0 °F 87% 30.42 in 9.0 mi West 18.4 mph - 0.00 in Snow Light Snow
4:01 PM 6.1 °F -12.2 °F 3.9 °F 91% 30.41 in 9.0 mi West 16.1 mph - 0.00 in Snow Light Snow
5:01 PM 6.1 °F -13.3 °F 3.9 °F 91% 30.41 in 8.0 mi West 18.4 mph - 0.00 in Snow Light Snow
5:55 PM 6.8 °F -13.8 °F 3.2 °F 85% 30.41 in 9.0 mi West 21.9 mph - N/A Snow Light Snow
6:01 PM 6.1 °F -14.3 °F 3.0 °F 87% 30.41 in 9.0 mi West 20.7 mph - 0.00 in Snow Light Snow
6:58 PM 6.8 °F -11.3 °F 3.2 °F 85% 30.40 in 9.0 mi West 16.1 mph - N/A Snow Light Snow
7:01 PM 6.1 °F -12.8 °F 3.0 °F 87% 30.40 in 9.0 mi West 17.3 mph - 0.00 in Snow Light Snow
8:00 PM 6.8 °F -11.8 °F 3.2 °F 85% 30.38 in 9.0 mi West 17.3 mph - N/A Snow Light Snow
8:01 PM 6.1 °F -12.8 °F 3.0 °F 87% 30.38 in 9.0 mi West 17.3 mph - 0.00 in Snow Light Snow
8:54 PM 6.8 °F -12.9 °F 3.2 °F 85% 30.36 in 9.0 mi West 19.6 mph - N/A Snow Light Snow
9:01 PM 6.1 °F -13.3 °F 3.0 °F 87% 30.37 in 9.0 mi West 18.4 mph - 0.00 in Snow Light Snow
9:57 PM 6.8 °F -10.0 °F 3.2 °F 85% 30.35 in 10.0 mi West 13.8 mph - N/A   Clear
10:01 PM 6.1 °F -10.9 °F 3.9 °F 91% 30.35 in 10.0 mi West 13.8 mph - 0.00 in   Clear
11:01 PM 6.1 °F -12.2 °F 3.9 °F 91% 30.35 in 10.0 mi West 16.1 mph - N/A   Scattered Clouds
11:53 PM 6.8 °F -11.3 °F 3.2 °F 85% 30.34 in 10.0 mi West 16.1 mph - N/A   Scattered Clouds